GW0920 Weather Reports


time (UTC)temp
C
wind
direction
speed
KPH
gust
KPH
rain 1hr
cm
rain 24hr
cm
rain mn
cm
humidity
%
barometer
mb
20260507222533 -17 0.0 0.0 0.00 0.41 0.00 1015.4
20260507221632 -17 0.0 0.0 0.00 0.41 0.00 1015.2
20260507220553 -17 0.0 0.0 0.00 0.41 0.00 1015.2
20260507215532 -17 0.0 0.0 0.00 0.41 0.41 1015.3
20260507214533 -17 0.0 0.0 0.00 0.41 0.41 1015.2
20260507213538 -17 0.0 0.0 0.00 0.41 0.41 1015.0
20260507212632 -17 0.0 0.0 0.00 0.41 0.41 1014.9
20260507211532 -17 0.0 0.0 0.00 0.41 0.41 1015.1
20260507210659 -17 0.0 0.0 0.00 0.41 0.41 1014.9
20260507205539 -17 0.0 0.0 0.00 0.41 0.41 1014.8
20260507204533 -17 0.0 0.0 0.00 0.41 0.41 1014.7
20260507203633 -17 0.0 0.0 0.00 0.41 0.41 1014.7
20260507202638 -17 0.0 0.0 0.00 0.41 0.41 1014.8
20260507201538 -17 0.0 0.0 0.00 0.41 0.41 1014.7
20260507200539 -17 0.0 0.0 0.00 0.41 0.41 1014.4
20260507195633 -17 0.0 0.0 0.00 0.41 0.41 1014.4
20260507194553 -17 0.0 0.0 0.00 0.41 0.41 1014.1
20260507193533 -17 0.0 0.0 0.00 0.41 0.41 1013.9
20260507192534 -17 0.0 0.0 0.00 0.41 0.41 1013.9
20260507191538 -17 0.0 0.0 0.00 0.41 0.41 1013.5
20260507190635 -17 0.0 0.0 0.00 0.41 0.41 1013.7
20260507185633 -17 0.0 0.0 0.00 0.41 0.41 1013.5
20260507184638 -17 0.0 0.0 0.00 0.41 0.41 1013.3
20260507183632 -17 0.0 0.0 0.00 0.41 0.41 1013.2
20260507182532 -17 0.0 0.0 0.00 0.41 0.41 1013.2
20260507181532 -17 0.0 0.0 0.00 0.41 0.41 1013.2
20260507180632 -17 6 0.0 1.6 0.00 0.41 0.41 1012.9
20260507175632 -17 6 0.0 1.6 0.00 0.41 0.41 1012.8
20260507174603 -17 237 0.0 3.2 0.00 0.41 0.41 1012.8
20260507173532 -17 166 1.6 3.2 0.00 0.41 0.41 1012.7
20260507172621 -17 39 1.6 3.2 0.00 0.41 0.41 1012.8
20260507171539 -17 164 1.6 3.2 0.00 0.41 0.41 1012.7
20260507170619 -17 121 3.2 3.2 0.00 0.41 0.41 1012.7
20260507165538 -17 179 3.2 8.0 0.00 0.41 0.41 1012.5
20260507164530 -17 295 1.6 4.8 0.00 0.41 0.41 1012.6
20260507163524 -17 161 3.2 8.0 0.00 0.41 0.41 1012.6
20260507162546 -17 212 3.2 4.8 0.00 0.41 0.41 1012.5
20260507161535 -17 189 3.2 8.0 0.00 0.41 0.41 1012.5
20260507160622 -17 312 4.8 8.0 0.00 0.41 0.41 1012.7
20260507155532 -17 292 3.2 8.0 0.00 0.41 0.41 1012.6
20260507154602 -17 312 3.2 8.0 0.00 0.41 0.41 1012.7
20260507153523 -17 188 4.8 9.7 0.00 0.41 0.41 1012.6
20260507152546 -17 316 3.2 8.0 0.00 0.41 0.41 1012.6
20260507151555 -17 147 4.8 4.8 0.00 0.41 0.41 1012.6
20260507150639 -17 133 3.2 4.8 0.00 0.41 0.41 1012.7
20260507145529 -17 130 1.6 3.2 0.00 0.41 0.41 1012.6
20260507144546 -17 156 3.2 9.7 0.00 0.41 0.41 1012.7
20260507143555 -17 62 1.6 4.8 0.00 0.41 0.41 1012.7
20260507142603 -17 281 3.2 3.2 0.00 0.41 0.41 1012.8
20260507141612 -17 268 3.2 11.3 0.00 0.41 0.41 1012.9
20260507140639 -17 292 1.6 3.2 0.00 0.41 0.41 1012.9
20260507135533 -17 105 1.6 4.8 0.00 0.41 0.41 1012.9
20260507134547 -17 200 1.6 4.8 0.00 0.41 0.41 1013.1
20260507133617 -17 329 4.8 9.7 0.00 0.41 0.41 1013.1
20260507132609 -17 252 3.2 9.7 0.00 0.41 0.41 1013.3
20260507131532 -17 193 3.2 9.7 0.00 0.41 0.41 1013.3
20260507130602 -17 211 3.2 4.8 0.00 0.41 0.41 1013.4
20260507125627 -17 256 4.8 12.9 0.00 0.41 0.41 1013.4
20260507124532 -17 251 4.8 11.3 0.00 0.41 0.41 1013.5
20260507123611 -17 163 3.2 8.0 0.00 0.41 0.41 1013.7
20260507122531 -17 277 3.2 9.7 0.00 0.41 0.41 1013.6
20260507121605 -17 246 4.8 9.7 0.00 0.41 0.41 1013.8
20260507120556 -17 159 4.8 12.9 0.00 0.41 0.41 1013.7
20260507115617 -17 118 3.2 4.8 0.00 0.41 0.41 1013.8
20260507114619 -17 198 3.2 4.8 0.00 0.41 0.41 1013.8
20260507113523 -17 287 4.8 8.0 0.00 0.41 0.41 1014.0
20260507112532 -17 251 3.2 8.0 0.00 0.41 0.41 1014.1
20260507111555 -17 23 3.2 4.8 0.00 0.41 0.41 1014.1
20260507110531 -17 152 4.8 11.3 0.00 0.41 0.41 1014.3
20260507105539 -17 308 3.2 4.8 0.00 0.41 0.41 1014.4
20260507104547 -17 245 3.2 4.8 0.00 0.41 0.41 1014.5
20260507103631 -17 127 3.2 9.7 0.00 0.41 0.41 1014.4
20260507102625 -17 209 3.2 8.0 0.00 0.41 0.41 1014.7
20260507101648 -17 318 1.6 3.2 0.00 0.41 0.41 1014.6
20260507100532 -17 301 4.8 9.7 0.00 0.41 0.41 1014.6
20260507095539 -17 93 4.8 8.0 0.00 0.41 0.41 1014.8
20260507094531 -17 145 9.7 12.9 0.00 0.41 0.41 1014.6
20260507093532 -17 187 1.6 4.8 0.00 0.41 0.41 1014.7
20260507092603 -17 213 1.6 8.0 0.00 0.41 0.41 1014.5
20260507091523 -17 166 6.4 9.7 0.00 0.41 0.41 1014.7
20260507090531 17 1 1.6 8.0 0.00 0.41 0.41 99 1014.6
20260507085635 18 321 3.2 9.7 0.00 0.41 0.41 99 1014.6
20260507084609 17 113 3.2 8.0 0.00 0.41 0.41 99 1014.5
20260507083532 16 142 6.4 9.7 0.00 0.41 0.41 99 1014.5
20260507082619 16 105 1.6 4.8 0.00 0.41 0.41 99 1014.6
20260507081523 16 37 0.0 3.2 0.00 0.41 0.41 99 1014.6
20260507080548 16 33 1.6 3.2 0.00 0.41 0.41 99 1014.4
20260507075621 15 350 1.6 4.8 0.00 0.41 0.41 99 1014.4
20260507074619 15 0.0 0.0 0.00 0.41 0.41 99 1014.3
20260507073532 12 8 1.6 4.8 0.00 0.41 0.41 99 1014.3
20260507072619 12 0.0 0.0 0.00 0.41 0.41 99 1014.3
20260507071523 12 0.0 0.0 0.00 0.41 0.41 99 1014.2
20260507070532 12 0.0 0.0 0.00 0.41 0.41 99 1014.2
20260507065611 12 325 0.0 3.2 0.00 0.41 0.41 99 1014.2
20260507064620 12 0.0 0.0 0.00 0.46 0.41 99 1013.9
20260507063612 12 0.0 0.0 0.00 0.48 0.41 99 1013.8
20260507062552 12 0.0 0.0 0.00 0.48 0.41 99 1013.8
20260507061540 12 0.0 0.0 0.00 0.48 0.41 99 1013.7
20260507060551 11 0.0 0.0 0.00 0.48 0.41 99 1013.6
20260507055524 11 0.0 0.0 0.00 0.48 0.41 99 1013.5
20260507054635 11 0.0 0.0 0.00 0.48 0.41 99 1013.3
20260507053539 11 0.0 0.0 0.00 0.48 0.41 99 1013.3
20260507052551 11 320 1.6 3.2 0.08 0.48 0.41 99 1013.1
20260507051555 11 298 0.0 1.6 0.10 0.48 0.41 99 1013.1
20260507050652 11 346 1.6 3.2 0.13 0.48 0.41 99 1012.9
20260507045532 11 286 0.0 3.2 0.20 0.48 0.41 99 1012.9
20260507044547 11 318 0.0 1.6 0.25 0.48 0.41 99 1012.7
20260507043602 11 42 0.0 1.6 0.28 0.48 0.41 99 1012.6
20260507042619 11 324 1.6 3.2 0.25 0.43 0.33 99 1012.6
20260507041524 11 310 1.6 3.2 0.25 0.43 0.30 99 1012.7
20260507040620 11 333 3.2 4.8 0.28 0.46 0.28 99 1012.4
20260507035532 11 326 1.6 3.2 0.20 0.41 0.20 99 1012.6
20260507034603 11 319 3.2 8.0 0.15 0.36 0.15 99 1012.6
20260507033532 11 350 1.6 3.2 0.13 0.33 0.13 99 1012.5
20260507032538 11 340 3.2 4.8 0.08 0.28 0.08 99 1012.4
20260507031601 12 10 3.2 8.0 0.05 0.25 0.05 99 1012.5
20260507030532 12 351 3.2 8.0 0.00 0.20 0.00 99 1012.5
20260507025611 12 349 4.8 9.7 0.00 0.20 0.00 99 1012.5
20260507024619 12 15 6.4 9.7 0.00 0.20 0.00 99 1012.4
20260507023532 12 15 4.8 9.7 0.00 0.20 0.00 99 1012.4
20260507022632 12 332 1.6 4.8 0.00 0.20 0.00 99 1012.4
20260507021532 12 354 1.6 3.2 0.00 0.20 0.00 99 1012.5
20260507020639 12 329 3.2 4.8 0.00 0.20 0.00 99 1012.5
20260507015556 12 318 3.2 4.8 0.00 0.20 0.00 99 1012.6
20260507014531 12 330 1.6 4.8 0.00 0.20 0.00 99 1012.5
20260507013523 12 331 1.6 1.6 0.00 0.20 0.00 99 1012.2
20260507012547 12 323 1.6 3.2 0.00 0.20 0.00 99 1012.3
20260507011611 12 0.0 0.0 0.00 0.20 0.00 99 1012.3
20260507010604 12 68 0.0 1.6 0.00 0.20 0.00 99 1012.4
20260507005523 12 190 0.0 1.6 0.00 0.20 0.00 99 1012.4
20260507004547 13 281 0.0 1.6 0.00 0.20 0.00 99 1012.3
20260507003523 13 355 1.6 3.2 0.00 0.20 0.00 99 1012.2
20260507002531 13 16 1.6 3.2 0.00 0.20 0.00 99 1012.1
20260507001611 13 333 1.6 3.2 0.00 0.20 0.00 99 1012.2
20260507000531 13 332 1.6 3.2 0.00 0.20 0.00 99 1012.2
20260506235615 13 343 0.0 3.2 0.00 0.20 0.00 99 1012.1
20260506234609 13 355 1.6 3.2 0.00 0.20 0.00 99 1012.2
20260506233556 13 13 1.6 3.2 0.00 0.20 0.00 99 1012.1
20260506232604 13 351 1.6 8.0 0.00 0.20 0.00 99 1012.0
20260506231555 12 12 0.0 1.6 0.00 0.20 0.00 99 1011.9
20260506230603 12 3 0.0 1.6 0.00 0.20 0.00 99 1011.9
20260506225631 12 0.0 0.0 0.00 0.20 0.00 99 1011.8
20260506224603 12 1 0.0 1.6 0.00 0.20 0.00 99 1011.9
20260506223523 12 108 1.6 3.2 0.00 0.20 0.00 99 1011.8